Regional Weather Roundup
Issued by NWS Sioux Falls, SD

Home | Current Version | Previous Version | Text Only | Print | Product List | Glossary On
Versions: 1 2 3 4 5 6 7 8 9 10 11 12 13 14 15 16 17 18 19 20 21 22 23 24 25 26 27 28 29 30 31 32 33 34 35 36 37 38 39 40 41 42 43 44 45 46 47 48 49 50
000
ASUS43 KFSD 281910
RWRFSD

WEATHER ROUNDUP FOR SE SOUTH DAKOTA/SW MINNESOTA/NW IOWA
NATIONAL WEATHER SERVICE SIOUX FALLS SD
200 PM CDT SUN AUG 28 2016

NOTE: "FAIR" INDICATES FEW OR NO CLOUDS BELOW 12,000 FEET WITH NO
SIGNIFICANT WEATHER AND OR OBSTRUCTIONS TO VISIBILITY.


SDZ038>040-050-052>070-282000-
SOUTHEAST SOUTH DAKOTA

CITY           SKY/WX    TMP DP  RH WIND       PRES   REMARKS
BROOKINGS      SUNNY     85  73  67 S21       30.04F
CHAMBERLAIN    SUNNY     94  66  39 S12G21    29.96S HX  97
HURON          SUNNY     88  69  53 S15G26    29.95F
MADISON        FAIR      82  75  78 S14G23    30.05F
MITCHELL       SUNNY     88  71  57 SE20      29.99F
SIOUX FALLS    MOSUNNY   86  72  62 S16G25    30.05F
WINNER         FAIR      95  62  33 S20       29.97F HX  96
YANKTON        SUNNY     90  70  51 SE17G23   30.01F HX  95
$$

MNZ071-072-080-081-089-090-097-098-282000-
SOUTHWEST MINNESOTA

CITY           SKY/WX    TMP DP  RH WIND       PRES   REMARKS
FAIRMONT       MOSUNNY   82  70  65 S14       30.12F
JACKSON          N/A     82  68  61 SE10      30.13F
LUVERNE        MOSUNNY   84  70  61 SE12      30.08F
MARSHALL       MOSUNNY   85  74  69 S20       30.06F
MONTEVIDEO     SUNNY     82  73  74 S12       30.06F
REDWOOD FALLS  MOSUNNY   83  72  69 S14       30.08F
TRACY          MOSUNNY   84  74  71 S15       30.09S
WINDOM         SUNNY     84  72  65 SE14      30.10F
WORTHINGTON    MOSUNNY   82  73  74 SE13      30.11F
$$

IAZ001>003-012>014-020>022-031-032-NEZ013-014-SDZ071-282000-
NORTHWEST IOWA

CITY           SKY/WX    TMP DP  RH WIND       PRES   REMARKS
CHEROKEE       CLOUDY    86  75  69 SE10      30.10F
DENISON        HAZE      84  73  70 SE9G16    30.09F VSB<1/4
ESTHERVILLE    MOSUNNY   82  73  74 S13       30.12F
LE MARS        MOSUNNY   88  73  62 SE13G18   30.09S HX  96
ORANGE CITY    MOSUNNY   84  73  70 S9G16     30.10S
SHELDON        MOSUNNY   84  75  74 S14       30.09S
SIOUX CITY     MOSUNNY   86  73  65 S15       30.08S
SPENCER        MOSUNNY   85  71  63 SE14      30.12F
STORM LAKE     MOSUNNY   82  73  74 SE10      30.13F
$$

ABBREVIATIONS USED IN REMARKS
   TC - TEMPERATURE IN CELSIUS
  WCI - WIND CHILL INDEX
   HX - HEAT INDEX
  VSB - VISIBILITY




USA.gov is the U.S. government's official web portal to all federal, state and local government web resources and services.